sat.trackr.live / text

‹ back to catalog

STARLINK-30891

NORAD 58367 · 2023-177S

PAYLOAD ACTIVE UNKNOWN

§ Identity

Operator
Country
US
Launch date
2023-11-18
Launch site
AFETR
Launch vehicle
Mass (kg)
RCS (m²)

Purposes: comms

External: N2YO · Heavens-Above · Gunter

§ Orbital elements

Epoch: 2026-09-20T15:57:30.246624Z

Period
94.27 min
Inclination
43.0019°
Eccentricity
0.0001002
Mean motion
15.27577497 rev/d
Perigee alt
482.4 km
Apogee alt
483.7 km
Semi-major
6,861.2 km
B*
2.6248e-5
RAAN
329.7201°
Arg perigee
275.2009°
Mean anomaly
84.8729°
Rev number
15,798

§ Raw data

STARLINK-308911 58367U 23177S   26263.66493341  .00000460  00000+0  26248-4 0  99992 58367  43.0019 329.7201 0001002 275.2009  84.8729 15.27577497157982

JSON: /api/v1/satellites/58367 · /tle

For live sub-satellite position, see the globe view (requires WebGL).

§ Visibility from observer

Set your observer location to see the next 7 days of passes ≥ 10°. The values pass through the URL so the page stays shareable.

No JS? Fill the form by hand. The geolocation button needs JavaScript.